Flag for U.S.A. Weather past 2 weeks in Lakewood, Colorado, U.S.A.

Now
56 °F

Partly cloudy.


Feels Like: 54 °F
Forecast: 56 / 69 °F
Wind: 8 mph from Northwest

Location: Centennial Airport

Current Time: Sep 21, 2014 at 6:15:03 AM

Latest Report: Sep 21, 2014 at 5:53 AM


Visibility: 10 mi

Pressure: 30.21 "Hg

Humidity: 72%

Dew point: 47 °F

Location of LakewoodLocation

Historic Weather in Lakewood — Graph

°F

Lakewood temperature yesterday

Maximum temperature yesterday: 78 °F (at 2:53 PM)
Minimum temperature yesterday: 53 °F (at 6:53 AM)
Average temperature yesterday: 66 °F

Past Weeks' High & Low Weather Summary

 TemperatureHumidityPressure
High87 °F (Sep 17, 2:53 PM)100% (Sep 10, 5:53 AM)30.53 "Hg (Sep 10, 5:53 AM)
Low32 °F (Sep 12, 3:53 AM)13% (Sep 18, 3:53 PM)29.65 "Hg (Sep 9, 12:53 PM)
Average63 °F55%30.02 "Hg
* Reported Sep 6 4:53 AM — Sep 21 4:53 AM, Lakewood, Weather by CustomWeather, © 2014

Note: Actual official high and low records may vary slightly from our data, if they occured in-between our weather recording intervals... More about our weather records

Advertising

Lakewood weather history for previous 24 hours

 ConditionsComfort  
Time TempWeatherWind HumidityBarometerVisibility
4:53 AM
Sep 21
59 °FPassing clouds.8 mph81%30.18 "Hg10 mi
3:53 AM60 °FPassing clouds.10 mph83%30.17 "Hg10 mi
2:53 AM59 °FMostly cloudy.8 mph87%30.15 "Hg10 mi
1:53 AM60 °FMostly cloudy.6 mph80%30.18 "Hg10 mi
12:53 AM58 °FPartly cloudy.6 mph87%30.20 "Hg10 mi
11:53 PM
Sep 20
59 °FPartly cloudy.6 mph87%30.19 "Hg10 mi
10:53 PM60 °FMostly cloudy.No wind86%30.20 "Hg10 mi
9:53 PM60 °FMostly cloudy.7 mph90%30.21 "Hg10 mi
8:53 PM63 °FThunderstorms. Mostly cloudy.8 mph73%30.21 "Hg7 mi
7:53 PM72 °FThunderstorms. Broken clouds.6 mph40%30.13 "Hg10 mi
6:53 PM72 °FBroken clouds.7 mph40%30.13 "Hg10 mi
5:53 PM75 °FPartly sunny.7 mph36%30.09 "Hg10 mi
4:53 PM77 °FScattered clouds.10 mph33%30.08 "Hg10 mi
3:53 PM78 °FPassing clouds.12 mph32%30.06 "Hg10 mi
2:53 PM78 °FPassing clouds.9 mph35%30.06 "Hg10 mi
1:53 PM76 °FPassing clouds.6 mph36%30.08 "Hg10 mi
12:53 PM71 °FPassing clouds.No wind42%30.10 "Hg10 mi
11:53 AM70 °FPassing clouds.6 mph46%30.11 "Hg10 mi
6:53 AM53 °FPassing clouds.No wind74%30.04 "Hg10 mi
Weather by CustomWeather, © 2014

See weather overviewHow to use our weather pages